This is the latest recevied weather packets stored in our database for station/object OK2JF-6. If no packets are shown the sender has not sent any weather packets the latest 10 day(s).
| Time | Temp. | Humidity | Pressure | Rain* | Wind** | Luminosity | Snow |
|---|---|---|---|---|---|---|---|
| 1777901957 | 23.33° C | 44% | 1085.7 hPa | 0 mm | - | 212 W/m² | - |
| 1777901898 | 23.33° C | 43% | 1085.7 hPa | 0 mm | - | 234 W/m² | - |
| 1777901883 | 23.33° C | 43% | 1085.7 hPa | 0 mm | - | 229 W/m² | - |
| 1777901643 | 23.33° C | 42% | 1085.7 hPa | 0 mm | - | 236 W/m² | - |
| 1777901403 | 23.89° C | 42% | 1085.7 hPa | 0 mm | - | 271 W/m² | - |
| 1777901357 | 23.33° C | 41% | 1085.5 hPa | 0 mm | - | 252 W/m² | - |
| 1777901283 | 23.33° C | 42% | 1085.6 hPa | 0 mm | - | 274 W/m² | - |
| 1777900997 | 23.33° C | 44% | 1085.7 hPa | 0 mm | - | 301 W/m² | - |
| 1777900923 | 23.33° C | 44% | 1085.8 hPa | 0 mm | - | 300 W/m² | - |
| 1777900563 | 23.33° C | 44% | 1086 hPa | 0 mm | - | 246 W/m² | - |
| 1777900518 | 23.33° C | 44% | 1085.8 hPa | 0 mm | - | 307 W/m² | - |
| 1777900143 | 23.33° C | 43% | 1085.9 hPa | 0 mm | - | 211 W/m² | - |
| 1777899303 | 23.33° C | 45% | 1085.9 hPa | 0 mm | - | 332 W/m² | - |
| 1777899258 | 23.33° C | 45% | 1085.9 hPa | 0 mm | - | 381 W/m² | - |
| 1777898883 | 23.33° C | 44% | 1085.8 hPa | 0 mm | - | 269 W/m² | - |
| 1777898717 | 23.33° C | 44% | 1086 hPa | 0 mm | - | 311 W/m² | - |
| 1777897743 | 23.33° C | 45% | 1086.2 hPa | 0 mm | - | 261 W/m² | - |
| 1777897383 | 22.78° C | 46% | 1086.4 hPa | 0 mm | - | 323 W/m² | - |
| 1777897323 | 22.78° C | 46% | 1086.3 hPa | 0 mm | - | 350 W/m² | - |
| 1777897264 | 22.78° C | 45% | 1086 hPa | 0 mm | - | 329 W/m² | - |
| 1777896783 | 23.33° C | 44% | 1086.4 hPa | 0 mm | - | 173 W/m² | - |
| 1777895763 | 22.78° C | 44% | 1086.2 hPa | 0 mm | - | 388 W/m² | - |
| 1777895343 | 22.78° C | 43% | 1086.3 hPa | 0 mm | - | 395 W/m² | - |
| 1777895283 | 22.78° C | 43% | 1086.8 hPa | 0 mm | - | 360 W/m² | - |
| 1777895117 | 23.33° C | 43% | 1086.4 hPa | 0 mm | - | 394 W/m² | - |
* Rain latest hour (hover to see other rain measurements)
** Current wind speed in m/s (hover to see current wind gust speed)